User: anonymous   Login
Location: Norwich
(52.6280°N, 1.3030°E)
Time: 10:23:37
(UTC+01:00)
Language:

APEX - Orbit

View from above orbital plane
View from above orbital plane
View from above satellite
View from above satellite

Ground track
Ground track

The orbit data is extracted from the following two-line orbital elements,

1 23191U 94046A   15087.00831978  .00016929  00000-0  62689-3 0  9997
2 23191 069.9316 275.7682 0694621 280.6272 181.5515 14.16483164   514
Epoch (UTC): 28 March 2015 00:11:58
Eccentricity: 0.0694621
inclination: 69.9316°
perigee height: 336 km
apogee height: 1338 km
right ascension of ascending node: 275.7682°
argument of perigee: 280.6272°
revolutions per day: 14.16483164
mean anomaly at epoch: 181.5515°
orbit number at epoch: 51

The dashed part of the orbit path shows where the satellite is in the earth's shadow,  

DLR